カタログに戻る

STARLINK-35720

運用中通信VLEO
NORAD 67052·PAYLOAD·🇺🇸 United States

打ち上げ Dec 11, 2025 から Cape Canaveral Space Force Station

Loading…

次のパス (今後24時間)

TLE

最新Source: CelesTrak SupGP

元期: Sep 14, 2026, 20:49 UTC

1 67052C 25294Y   26257.86784722  .00047389  00000+0  17167-2 0  2579
2 67052  43.0043  49.5977 0001542 274.4989  50.3704 15.27549419    19

AllMySatでSTARLINK-35720をリアルタイム追跡

Download on the App Store